VOE1332 LIEE-LIRQ

Flight info

Callsign VOE1332
Flight time 0h 54m
Altitude 34000
Route KOVAS DCT DEXUL DCT APSUX DCT AMTEL/N0376F180 L995 IBRID
Aircraft A319/M-SDE3FGHIRWY/LB1

Departure

Time 2026-04-28 19:50
Airport Cagliari Elmas Airport (LIEE)

Arrival

Time 2026-04-28 20:44
Airport Florence Airport, Peretola (LIRQ)
Time Latitude Longitude Altitude Speed Heading
2026-04-28 19:23 39.25465 9.05766 20 ft 0 kts 321°
2026-04-28 19:39 39.25460 9.05772 20 ft 2 kts 321°
2026-04-28 19:39 39.25448 9.05784 20 ft 2 kts 321°
2026-04-28 19:39 39.25436 9.05796 20 ft 2 kts 321°
2026-04-28 19:39 39.25429 9.05803 20 ft 1 kts 323°
2026-04-28 19:40 39.25423 9.05815 20 ft 1 kts 262°
2026-04-28 19:40 39.25426 9.05825 20 ft 1 kts 228°
2026-04-28 19:40 39.25431 9.05831 20 ft 0 kts 231°
2026-04-28 19:42 39.25430 9.05830 20 ft 0 kts 231°
2026-04-28 19:42 39.25428 9.05827 20 ft 1 kts 233°
2026-04-28 19:43 39.25415 9.05804 20 ft 3 kts 232°
2026-04-28 19:43 39.25397 9.05774 20 ft 4 kts 232°
2026-04-28 19:43 39.25372 9.05734 20 ft 6 kts 231°
2026-04-28 19:43 39.25345 9.05680 20 ft 7 kts 258°
2026-04-28 19:44 39.25376 9.05618 20 ft 9 kts 306°
2026-04-28 19:44 39.25398 9.05537 20 ft 10 kts 281°
2026-04-28 19:44 39.25415 9.05440 20 ft 11 kts 287°
2026-04-28 19:44 39.25459 9.05342 20 ft 13 kts 313°
2026-04-28 19:45 39.25538 9.05251 20 ft 16 kts 318°
2026-04-28 19:45 39.25625 9.05150 20 ft 18 kts 318°
2026-04-28 19:45 39.25725 9.05035 20 ft 19 kts 318°
2026-04-28 19:45 39.25828 9.04916 20 ft 20 kts 317°
2026-04-28 19:46 39.25932 9.04795 20 ft 20 kts 317°
2026-04-28 19:46 39.26039 9.04672 20 ft 20 kts 317°
2026-04-28 19:46 39.26113 9.04580 20 ft 12 kts 304°
2026-04-28 19:46 39.26128 9.04495 20 ft 3 kts 274°
2026-04-28 19:48 39.26129 9.04478 20 ft 3 kts 274°
2026-04-28 19:48 39.26123 9.04431 20 ft 7 kts 247°
2026-04-28 19:48 39.26078 9.04383 20 ft 10 kts 190°
2026-04-28 19:48 39.26027 9.04411 20 ft 0 kts 139°
2026-04-28 19:49 39.26022 9.04417 20 ft 1 kts 139°
2026-04-28 19:49 39.25950 9.04500 20 ft 44 kts 138°
2026-04-28 19:49 39.25520 9.04995 20 ft 120 kts 137°
2026-04-28 19:49 39.24753 9.05886 238 ft 161 kts 139°
2026-04-28 19:50 39.23125 9.07765 1953 ft 158 kts 136°
2026-04-28 19:50 39.22298 9.08728 2558 ft 170 kts 136°
2026-04-28 19:50 39.21379 9.09803 3078 ft 190 kts 136°
2026-04-28 19:51 39.20350 9.11006 3636 ft 210 kts 137°
2026-04-28 19:51 39.19104 9.12058 4325 ft 224 kts 162°
2026-04-28 19:51 39.17549 9.12122 5201 ft 232 kts 193°
2026-04-28 19:51 39.16153 9.11146 6092 ft 237 kts 223°
2026-04-28 19:52 39.15052 9.09585 7023 ft 239 kts 228°
2026-04-28 19:52 39.14090 9.07844 7916 ft 243 kts 247°
2026-04-28 19:52 39.13829 9.05746 8790 ft 247 kts 274°
2026-04-28 19:52 39.14358 9.03637 9496 ft 260 kts 301°
2026-04-28 19:53 39.15727 9.01984 9984 ft 283 kts 332°
2026-04-28 19:53 39.17716 9.01473 10468 ft 306 kts
2026-04-28 19:53 39.19804 9.02238 10929 ft 326 kts 22°
2026-04-28 19:53 39.21910 9.03532 11382 ft 344 kts 25°
2026-04-28 19:54 39.24067 9.04939 12058 ft 352 kts 25°
2026-04-28 19:54 39.26282 9.06366 12906 ft 354 kts 25°
2026-04-28 19:54 39.28475 9.07749 13700 ft 357 kts 24°
2026-04-28 19:54 39.30745 9.09156 14480 ft 360 kts 24°
2026-04-28 19:55 39.33005 9.10540 15211 ft 364 kts 23°
2026-04-28 19:55 39.35298 9.11937 15919 ft 368 kts 23°
2026-04-28 19:55 39.37624 9.13347 16606 ft 372 kts 23°
2026-04-28 19:55 39.39972 9.14768 17277 ft 376 kts 23°
2026-04-28 19:56 39.42339 9.16198 17930 ft 379 kts 23°
2026-04-28 19:56 39.44737 9.17649 18550 ft 383 kts 23°
2026-04-28 19:56 39.47152 9.19109 18919 ft 386 kts 23°
2026-04-28 19:56 39.49611 9.20599 18992 ft 386 kts 23°
2026-04-28 19:57 39.52034 9.22069 18996 ft 385 kts 23°
2026-04-28 19:57 39.54451 9.23534 19000 ft 385 kts 23°
2026-04-28 19:57 39.56886 9.25011 19025 ft 387 kts 23°
2026-04-28 19:57 39.59327 9.26493 19441 ft 392 kts 23°
2026-04-28 19:58 39.61805 9.27999 20167 ft 392 kts 24°
2026-04-28 19:58 39.64275 9.29501 20805 ft 395 kts 24°
2026-04-28 19:58 39.66786 9.31031 21381 ft 399 kts 23°
2026-04-28 19:58 39.69310 9.32568 21940 ft 403 kts 24°
2026-04-28 19:59 39.71845 9.34113 22504 ft 406 kts 24°
2026-04-28 19:59 39.74403 9.35675 23044 ft 409 kts 24°
2026-04-28 19:59 39.76985 9.37251 23553 ft 413 kts 24°
2026-04-28 19:59 39.79610 9.38856 24088 ft 416 kts 24°
2026-04-28 20:00 39.82227 9.40457 24602 ft 419 kts 24°
2026-04-28 20:00 39.84845 9.42060 25105 ft 421 kts 24°
2026-04-28 20:00 39.87531 9.43706 25599 ft 424 kts 24°
2026-04-28 20:00 39.90201 9.45344 26073 ft 427 kts 24°
2026-04-28 20:01 39.92884 9.46992 26531 ft 430 kts 24°
2026-04-28 20:01 39.95614 9.48669 26984 ft 432 kts 24°
2026-04-28 20:01 39.98313 9.50330 27411 ft 435 kts 24°
2026-04-28 20:01 40.01070 9.52027 27844 ft 437 kts 24°
2026-04-28 20:02 40.03823 9.53723 28259 ft 440 kts 24°
2026-04-28 20:02 40.06614 9.55445 28652 ft 443 kts 24°
2026-04-28 20:02 40.09395 9.57162 29038 ft 446 kts 24°
2026-04-28 20:02 40.12190 9.58887 29423 ft 448 kts 24°
2026-04-28 20:03 40.14997 9.60623 29820 ft 450 kts 24°
2026-04-28 20:03 40.17839 9.62381 30330 ft 449 kts 24°
2026-04-28 20:03 40.20623 9.64106 30867 ft 446 kts 24°
2026-04-28 20:03 40.23438 9.65853 31363 ft 445 kts 25°
2026-04-28 20:04 40.26224 9.67583 31834 ft 444 kts 25°
2026-04-28 20:04 40.28980 9.69295 32282 ft 443 kts 25°
2026-04-28 20:04 40.31779 9.71036 32682 ft 443 kts 25°
2026-04-28 20:04 40.34546 9.72758 33008 ft 444 kts 25°
2026-04-28 20:05 40.37332 9.74495 33314 ft 446 kts 25°
2026-04-28 20:05 40.40149 9.76251 33625 ft 447 kts 25°
2026-04-28 20:05 40.42936 9.77990 33916 ft 449 kts 25°
2026-04-28 20:06 40.48580 9.81513 33987 ft 450 kts 25°
2026-04-28 20:06 40.54241 9.85058 33989 ft 450 kts 25°
2026-04-28 20:07 40.59855 9.88582 33994 ft 450 kts 25°
2026-04-28 20:07 40.65480 9.92118 33996 ft 449 kts 24°
2026-04-28 20:08 40.71143 9.95684 33996 ft 450 kts 24°
2026-04-28 20:08 40.76756 9.99224 33997 ft 450 kts 24°
2026-04-28 20:09 40.82410 10.02798 33995 ft 450 kts 24°
2026-04-28 20:09 40.88036 10.06359 33994 ft 450 kts 24°
2026-04-28 20:10 40.93708 10.09957 33996 ft 451 kts 24°
2026-04-28 20:10 40.99331 10.13532 33996 ft 451 kts 24°
2026-04-28 20:11 41.04991 10.17137 34002 ft 451 kts 24°
2026-04-28 20:11 41.10629 10.20737 34002 ft 451 kts 24°
2026-04-28 20:12 41.16266 10.24342 34004 ft 450 kts 24°
2026-04-28 20:12 41.21917 10.27961 34007 ft 450 kts 24°
2026-04-28 20:13 41.27525 10.31559 34005 ft 450 kts 24°
2026-04-28 20:13 41.33139 10.35169 34009 ft 449 kts 24°
2026-04-28 20:14 41.38775 10.38800 34011 ft 450 kts 24°
2026-04-28 20:14 41.44398 10.42429 34007 ft 449 kts 24°
2026-04-28 20:15 41.49995 10.46049 34017 ft 449 kts 24°
2026-04-28 20:15 41.55588 10.49673 34012 ft 448 kts 24°
2026-04-28 20:16 41.61178 10.53303 34018 ft 448 kts 24°
2026-04-28 20:16 41.66799 10.56961 34015 ft 448 kts 24°
2026-04-28 20:17 41.72388 10.60605 34017 ft 448 kts 24°
2026-04-28 20:17 41.77960 10.64245 34016 ft 448 kts 24°
2026-04-28 20:18 41.83538 10.67895 34018 ft 448 kts 24°
2026-04-28 20:18 41.89145 10.71570 34020 ft 447 kts 24°
2026-04-28 20:19 41.94716 10.75229 34019 ft 447 kts 24°
2026-04-28 20:19 42.00280 10.78890 34022 ft 447 kts 24°
2026-04-28 20:20 42.05875 10.82581 34018 ft 446 kts 24°
2026-04-28 20:20 42.11407 10.86237 34023 ft 446 kts 24°
2026-04-28 20:21 42.16978 10.89924 34020 ft 446 kts 24°
2026-04-28 20:21 42.22530 10.93608 34019 ft 446 kts 24°
2026-04-28 20:22 42.28088 10.97303 34026 ft 446 kts 24°
2026-04-28 20:22 42.33649 11.01005 34027 ft 446 kts 24°
2026-04-28 20:23 42.39209 11.04716 34034 ft 446 kts 24°
2026-04-28 20:23 42.44740 11.08414 34029 ft 445 kts 24°
2026-04-28 20:24 42.50358 11.11826 33329 ft 442 kts 14°
2026-04-28 20:24 42.53332 11.12856 32615 ft 442 kts 10°
2026-04-28 20:24 42.56346 11.13749 31792 ft 445 kts
2026-04-28 20:24 42.59374 11.14626 30964 ft 448 kts
2026-04-28 20:25 42.62371 11.15505 30316 ft 447 kts
2026-04-28 20:25 42.65391 11.16403 29619 ft 445 kts 10°
2026-04-28 20:25 42.68427 11.17314 28918 ft 444 kts 10°
2026-04-28 20:25 42.71418 11.18219 28227 ft 442 kts 10°
2026-04-28 20:26 42.74382 11.19119 27539 ft 440 kts 10°
2026-04-28 20:26 42.77366 11.20028 26850 ft 438 kts 10°
2026-04-28 20:26 42.80305 11.20927 26168 ft 435 kts 10°
2026-04-28 20:26 42.83275 11.21837 25469 ft 433 kts 10°
2026-04-28 20:27 42.86167 11.22724 24790 ft 430 kts 10°
2026-04-28 20:27 42.89069 11.23614 24183 ft 426 kts 10°
2026-04-28 20:27 42.91920 11.24490 23642 ft 420 kts 10°
2026-04-28 20:27 42.94764 11.25364 23123 ft 415 kts 10°
2026-04-28 20:28 42.97537 11.26217 22627 ft 409 kts 10°
2026-04-28 20:28 43.00320 11.27074 22133 ft 404 kts 10°
2026-04-28 20:28 43.03021 11.27907 21628 ft 400 kts 10°
2026-04-28 20:28 43.05712 11.28736 21083 ft 397 kts 10°
2026-04-28 20:29 43.08389 11.29562 20517 ft 394 kts 10°
2026-04-28 20:29 43.11060 11.30384 19945 ft 392 kts 10°
2026-04-28 20:29 43.13693 11.31197 19365 ft 390 kts 10°
2026-04-28 20:29 43.16352 11.32020 18778 ft 388 kts 10°
2026-04-28 20:30 43.18966 11.32829 18206 ft 386 kts 10°
2026-04-28 20:30 43.21545 11.33628 17635 ft 384 kts 11°
2026-04-28 20:30 43.24169 11.34443 17054 ft 383 kts 11°
2026-04-28 20:30 43.26734 11.35239 16497 ft 381 kts 10°
2026-04-28 20:31 43.29320 11.35673 15907 ft 373 kts 354°
2026-04-28 20:31 43.31745 11.34734 15271 ft 360 kts 329°
2026-04-28 20:31 43.33689 11.32651 14653 ft 348 kts 310°
2026-04-28 20:31 43.35023 11.29956 14048 ft 341 kts 294°
2026-04-28 20:32 43.35957 11.26998 13425 ft 338 kts 291°
2026-04-28 20:32 43.36851 11.24054 12799 ft 332 kts 291°
2026-04-28 20:32 43.37730 11.21207 12185 ft 325 kts 292°
2026-04-28 20:32 43.38622 11.18371 11574 ft 319 kts 292°
2026-04-28 20:33 43.39505 11.15599 11027 ft 312 kts 292°
2026-04-28 20:33 43.40371 11.12898 10479 ft 306 kts 292°
2026-04-28 20:33 43.41216 11.10272 9972 ft 299 kts 292°
2026-04-28 20:33 43.42050 11.07684 9466 ft 294 kts 292°
2026-04-28 20:34 43.42864 11.05156 8994 ft 287 kts 292°
2026-04-28 20:34 43.43657 11.02692 8481 ft 284 kts 292°
2026-04-28 20:34 43.44456 11.00209 7924 ft 283 kts 292°
2026-04-28 20:34 43.45246 10.97751 7437 ft 278 kts 292°
2026-04-28 20:35 43.46009 10.95381 7257 ft 262 kts 292°
2026-04-28 20:35 43.46722 10.93166 7133 ft 246 kts 292°
2026-04-28 20:35 43.47404 10.91075 7034 ft 233 kts 296°
2026-04-28 20:35 43.48325 10.89257 6881 ft 234 kts 313°
2026-04-28 20:36 43.49494 10.87735 6602 ft 234 kts 317°
2026-04-28 20:36 43.50719 10.86263 6329 ft 234 kts 318°
2026-04-28 20:36 43.51942 10.84795 6064 ft 233 kts 317°
2026-04-28 20:36 43.53161 10.83316 5803 ft 233 kts 320°
2026-04-28 20:37 43.54602 10.82338 5491 ft 234 kts 352°
2026-04-28 20:37 43.56197 10.82569 5197 ft 232 kts 25°
2026-04-28 20:37 43.57455 10.83877 4932 ft 228 kts 48°
2026-04-28 20:37 43.58513 10.85500 4674 ft 227 kts 50°
2026-04-28 20:38 43.59531 10.87136 4423 ft 226 kts 50°
2026-04-28 20:38 43.60545 10.88762 4373 ft 219 kts 50°
2026-04-28 20:38 43.61549 10.90357 4229 ft 221 kts 50°
2026-04-28 20:38 43.62548 10.91928 4011 ft 218 kts 49°
2026-04-28 20:39 43.63550 10.93493 3992 ft 217 kts 49°
2026-04-28 20:39 43.64563 10.95066 3994 ft 218 kts 49°
2026-04-28 20:39 43.65558 10.96609 3992 ft 218 kts 49°
2026-04-28 20:39 43.66555 10.98151 3974 ft 207 kts 49°
2026-04-28 20:40 43.67479 10.99580 3871 ft 199 kts 49°
2026-04-28 20:40 43.68400 11.01005 3623 ft 198 kts 49°
2026-04-28 20:40 43.69319 11.02428 3361 ft 199 kts 49°
2026-04-28 20:40 43.70234 11.03845 3163 ft 192 kts 49°
2026-04-28 20:41 43.71122 11.05219 2889 ft 189 kts 49°
2026-04-28 20:41 43.71989 11.06559 2620 ft 187 kts 49°
2026-04-28 20:41 43.72849 11.07891 2359 ft 183 kts 48°
2026-04-28 20:41 43.73694 11.09198 2107 ft 180 kts 48°
2026-04-28 20:42 43.74497 11.10441 1865 ft 169 kts 48°
2026-04-28 20:42 43.75246 11.11601 1675 ft 153 kts 48°
2026-04-28 20:42 43.75928 11.12655 1461 ft 139 kts 48°
2026-04-28 20:42 43.76553 11.13623 1280 ft 133 kts 48°
2026-04-28 20:43 43.77170 11.14576 1121 ft 133 kts 48°
2026-04-28 20:43 43.77791 11.15536 956 ft 133 kts 48°
2026-04-28 20:43 43.78408 11.16491 784 ft 133 kts 48°
2026-04-28 20:43 43.79017 11.17432 609 ft 133 kts 48°
2026-04-28 20:44 43.79633 11.18387 426 ft 133 kts 48°
2026-04-28 20:44 43.80255 11.19336 245 ft 132 kts 48°
2026-04-28 20:44 43.80846 11.20259 135 ft 108 kts 48°
2026-04-28 20:44 43.81150 11.20731 138 ft 31 kts 47°
2026-04-28 20:45 43.81254 11.20896 140 ft 13 kts 53°
2026-04-28 20:45 43.81265 11.21018 141 ft 13 kts 94°
2026-04-28 20:45 43.81259 11.21142 142 ft 12 kts 94°
2026-04-28 20:45 43.81286 11.21259 141 ft 13 kts 49°
2026-04-28 20:46 43.81353 11.21362 142 ft 14 kts 41°
2026-04-28 20:46 43.81447 11.21363 143 ft 15 kts 343°
2026-04-28 20:46 43.81501 11.21278 143 ft 13 kts 234°
2026-04-28 20:46 43.81432 11.21168 142 ft 16 kts 228°
2026-04-28 20:47 43.81348 11.21038 141 ft 19 kts 228°
2026-04-28 20:47 43.81250 11.20887 140 ft 22 kts 228°
2026-04-28 20:47 43.81138 11.20714 138 ft 25 kts 228°
2026-04-28 20:47 43.81018 11.20527 136 ft 27 kts 228°
2026-04-28 20:48 43.80886 11.20324 135 ft 28 kts 228°
2026-04-28 20:48 43.80762 11.20133 135 ft 21 kts 229°
2026-04-28 20:48 43.80674 11.20033 135 ft 16 kts 196°
2026-04-28 20:48 43.80574 11.19998 135 ft 9 kts 194°
2026-04-28 20:49 43.80520 11.19998 135 ft 8 kts 141°
2026-04-28 20:49 43.80491 11.20049 135 ft 5 kts 92°
2026-04-28 20:49 43.80516 11.20090 134 ft 5 kts 42°
2026-04-28 20:49 43.80518 11.20137 134 ft 4 kts 123°
2026-04-28 20:50 43.80505 11.20163 134 ft 0 kts 127°
2026-04-28 20:50 43.80504 11.20165 134 ft 0 kts 127°